SCP
0 0 0 0 0 0 0 0 0 0 0 0 0 0 0 0 0 0 0 0 0 0 0 0 0 0 0 0 0 0 0 0 0 0 0 0 0 0
0 0 0 0 0 0 0 0 0 0 0 0 0 0 0 0 0 0 0 0 0 0 0 0 0 0 0 0 0 0 0 0 0 0 0 0 0 0
0 0 0 0 0 0 0 0 0 0 0 0 0 0 0 0 0 0 0 0 0 0 0 0 0 0 0 0 0 0 0 0 0 0 0 0 0 0
0 0 0 0 0 0 0 0 0 0 0 0 0 0 0 0 0 0 0 0 0 0 0 0 0 0 0 0 0 0 0 0 0 0 0 0 0 0
0 0 0 0 0 0 0 0 0 0 0 0 0 0 0 0 0 0 0 0 0 0 0 0 0 0 0 0 0 0 0 0 0 0 0 0 0 0
0 0 0 0 0 0 0 0 0 0 0 0 0 0 0 0 0 0 0 0 0 0 0 0 0 0 0 0 0 0 0 0 0 0 0 0 0 0
0 0 0 0 0 0 0 0 0 0 0 0 0 0 0 0 0 0 0 0 0 0 0 0 0 0 0 0 0 0 0 0 0 0 0 0 0 0
0 0 0 0 0 0 0 0 0 0 0 0 0 0 0 0 0 0 0 0 0 0 0 0 0 0 0 0 0 0 0 0 0 0 0 0 0 0
0 0 0 0 0 0 0 0 0 0 0 0 0 0 0 0 0 0 0 0 0 0 0 0 0 0 0 0 0 0 0 0 0 0 0 0 0 0
0 0 0 0 0 0 0 0 0 0 0 0 0 0 0 0 0 0 0 0 0 0 0 0 0 0 0 0 0 0 0 0 0 0 0 0 0 0
0 0 0 0 0 0 0 0 0 0 0 0 0 0 0 0 0 0 0 0 0 0 0 0 0 0 0 0 0 0 0 0 0 0 0 0 0 0
0 0 0 0 0 0 0 0 0 0 0 0 0 0 0 0 0 0 0 0 0 0 0 0 0 0 0 0 0 0 0 0 0 0 0 0 0 0
0 0 0 0 0 0 0 0 0 0 0 0 0 0 0 0 0 0 0 0 0 0 0 0 0 0 0 0 0 0 0 0 0 0 0 0 0 0
0 0 0 0 0 0 0 0 0 0 0 0 0 0 0 0 0 0 0 0 0 0 0 0 0 0 0 0 0 0 0 0 0 0 0 0 0 0
0 0 0 0 0 0 0 0 0 0 0 0 0 0 0 0 0 0 0 0 0 0 0 0 0 0 0 0 0 0 0 0 0 0 0 0 0 0
0 0 0 0 0 0 0 0 0 0 0 0 0 0 0 0 0 0 0 0 0 0 0 0 0 0 0 0 0 0 0 0 0 0 0 0 0 0
0 0 0 0 0 0 0 0 0 0 0 0 0 0 0 0 0 0 0 0 0 0 0 0 0 0 0 0 0 0 0 0 0 0 0 0 0 0
0 0 0 0 0 0 0 0 0 0 0 0 0 0 0 0 0 0 0 0 0 0 0 0 0 0 0 0 0 0 0 0 0 0 0 0 0 0
0 0 0 0 0 0 0 0 0 0 0 0 0 0 0 0 0 0 0 0 0 0 0 0 0 0 0 0 0 0 0 0 0 0 0 0 0 0
0 0 0 0 0 0 0 0 0 0 0 0 0 0 0 0 0 0 0 0 0 0 0 0 0 0 0 0 0 0 0 0 0 0 0 0 0 0
0 0 0 0 0 0 0 0 0 0 0 0 0 0 0 0 0 0 0 0 0 0 0 0 0 0 0 0 0 0 0 0 0 0 0 0 0 0
0 0 0 0 0 0 0 0 0 0 0 0 0 0 0 0 0 0 0 0 0 0 0 0 0 0 0 0 0 0 0 0 0 0 0 0 0 0
0 0 0 0 0 0 0 0 0 0 0 0 0 0 0 0 0 0 0 0 0 0 0 0 0 0 0 0 0 0 0 0 0 0 0 0 0 0
Wind_Speed
7 7 5 3 3 3 3 4 5 3 3 3 2 2 2 2 6 3 3 12 18 19 20 21 21 21 22 22 23 23 23 23 23 24 24 25 25 26
6 7 5 3 3 2 2 2 3 4 4 3 4 3 3 4 8 4 5 17 18 19 20 21 22 22 23 23 23 23 24 24 24 25 25 26 26 26
8 7 5 4 3 2 2 2 2 3 4 3 2 2 3 5 6 5 6 6 8 18 21 22 22 22 22 23 23 23 24 24 25 25 25 26 26 26
8 6 5 3 3 2 2 3 3 3 4 5 3 3 5 5 5 6 7 8 6 17 22 22 22 22 22 22 22 23 24 24 25 25 25 26 27 27
7 6 5 4 3 2 3 3 3 3 4 4 4 3 4 4 4 6 7 7 9 13 18 19 20 21 21 22 23 25 25 26 26 26 26 27 27 28
7 6 5 3 2 3 3 4 3 3 3 4 4 4 4 5 4 5 7 5 7 9 13 14 17 20 22 25 25 26 26 26 26 26 26 27 27 28
7 5 4 2 3 3 3 4 4 4 3 3 4 3 4 4 5 5 8 7 8 8 6 6 8 9 12 18 22 24 25 26 26 26 27 27 27 28
6 4 3 3 2 2 5 5 6 4 4 3 3 5 6 6 6 7 8 9 7 3 4 8 7 10 9 7 19 26 26 27 27 27 27 28 28 28
5 4 2 2 2 2 5 8 8 11 10 5 5 6 7 7 7 9 9 9 10 7 8 13 8 11 9 11 23 26 28 28 28 27 27 27 27 27
4 3 2 1 3 5 5 4 4 5 8 6 6 8 8 8 9 9 9 8 8 7 6 10 10 11 11 8 20 26 28 27 26 26 25 25 25 26
2 1 1 3 8 9 4 3 5 5 10 14 15 14 17 19 15 7 5 6 10 8 4 6 6 7 10 10 13 21 23 24 25 26 27 27 27 26
1 1 4 6 9 10 4 3 5 5 6 7 7 10 10 12 15 6 4 6 8 7 4 4 5 5 9 6 6 7 11 20 26 28 28 27 27 16
2 2 3 8 10 11 9 3 8 9 3 3 6 7 6 5 5 5 5 6 9 9 6 4 6 4 7 9 7 7 9 11 11 15 21 25 26 20
1 2 4 10 11 11 8 11 14 10 3 5 6 7 6 6 6 7 7 8 10 14 13 10 9 9 10 13 12 9 7 8 10 12 10 17 20 22
2 6 8 10 10 7 10 13 9 3 4 5 6 7 5 6 7 7 8 8 11 12 13 12 12 11 11 12 12 12 12 10 10 10 8 8 9 9
3 4 6 8 7 8 8 6 4 4 5 5 7 8 8 6 7 6 8 9 10 10 8 10 11 12 12 13 13 15 13 10 8 9 10 11 10 10
2 2 2 3 4 4 4 4 4 4 5 5 7 8 8 8 8 7 6 7 8 11 13 7 7 9 13 14 14 15 14 13 12 10 10 13 12 10
4 2 3 3 4 5 6 6 6 5 5 6 6 7 8 8 9 8 7 8 10 11 12 11 10 11 9 10 17 16 13 13 12 11 11 13 14 10
3 2 3 4 4 4 4 5 5 5 5 6 7 7 7 8 8 9 9 9 10 11 11 10 9 10 13 15 10 13 12 13 13 12 11 12 15 12
2 3 4 4 4 5 5 5 6 6 6 6 7 7 7 8 9 9 9 10 11 13 13 10 8 9 12 15 16 14 14 13 12 14 13 12 13 18
3 3 4 4 5 5 5 5 6 7 7 7 7 7 7 8 9 10 10 16 15 12 13 13 12 18 13 11 13 13 12 13 15 14 14 14 14 12
4 4 4 5 5 5 5 6 6 7 7 7 7 7 7 8 10 12 12 12 12 12 14 13 13 11 10 12 15 16 18 16 16 21 21 19 12 9
4 5 5 5 5 5 5 6 8 8 7 7 8 8 8 9 10 11 12 12 12 13 14 14 12 10 10 11 13 15 18 18 14 14 13 17 20 24
Wind_Direction
127 120 113 109 107 112 124 140 153 196 255 260 258 234 229 250 304 307 282 306 308 308 306 303 300 298 296 294 292 291 290 289 288 286 284 282 280 279
115 111 101 101 112 120 134 144 156 172 223 245 242 248 260 284 298 310 292 306 309 306 301 300 299 296 294 292 291 290 289 288 285 283 281 280 280 279
111 115 118 124 135 147 143 155 174 173 220 255 254 260 269 277 289 290 281 277 282 297 300 299 297 295 294 293 292 290 288 285 284 282 281 281 281 280
115 119 129 134 155 162 168 186 198 200 210 247 254 255 255 264 268 278 289 290 281 295 298 298 298 298 296 294 292 290 289 287 285 284 282 280 279 278
122 132 137 142 173 178 189 203 214 219 209 229 252 247 258 264 274 275 277 278 282 289 296 298 297 296 295 295 295 294 291 288 285 282 279 278 277 276
109 110 113 136 185 197 207 218 222 229 225 233 252 257 259 260 261 277 291 275 282 287 286 288 290 294 294 294 292 290 288 286 283 280 278 275 273 271
102 97 102 133 205 208 217 220 216 225 235 245 257 265 270 274 274 276 293 293 281 271 271 269 277 277 281 284 288 286 284 282 280 278 277 275 273 272
108 100 106 99 57 350 305 279 245 232 228 227 246 265 275 271 274 282 291 298 295 265 275 285 276 280 277 267 280 284 284 284 283 281 280 278 276 274
109 108 101 66 29 311 298 295 295 293 286 277 273 270 275 275 275 280 278 279 283 285 291 289 279 279 277 277 284 285 286 286 286 284 281 278 276 273
120 127 132 286 293 281 255 254 261 270 279 278 255 259 264 266 261 274 283 286 279 275 266 279 284 280 281 273 281 283 284 285 285 285 283 282 280 278
121 139 225 266 292 298 286 258 268 271 289 294 293 294 297 302 302 299 294 297 295 291 256 261 277 284 283 274 272 278 281 285 288 288 286 284 281 279
159 249 293 299 299 306 295 272 280 278 278 290 296 299 294 291 297 287 269 279 288 290 251 251 277 301 296 266 251 264 274 280 283 284 284 283 282 280
213 245 272 306 310 312 321 320 297 304 303 305 300 295 290 283 281 271 253 252 270 271 268 270 275 264 268 289 281 263 264 271 276 277 280 281 281 278
250 262 275 304 321 331 333 315 314 326 337 310 302 299 299 297 293 284 270 256 251 260 270 268 270 273 278 283 286 283 272 268 270 274 271 277 279 277
272 305 319 332 343 343 324 324 337 340 308 302 299 296 288 282 289 291 286 274 268 261 261 255 255 265 267 272 278 284 291 286 269 265 267 262 261 263
318 339 353 352 345 331 330 332 321 301 302 297 299 299 299 294 293 293 299 306 301 290 253 239 244 251 264 268 272 278 277 275 276 268 269 271 263 254
23 52 360 344 339 329 322 315 310 313 312 303 299 301 301 300 298 300 292 294 287 294 302 295 248 243 250 261 269 269 272 273 271 273 274 277 270 255
15 1 341 333 324 321 318 316 312 305 300 297 294 290 293 295 296 296 288 288 289 290 291 296 302 300 283 254 235 255 266 273 277 273 269 275 277 263
20 334 316 307 300 296 293 293 292 291 290 286 283 283 285 287 289 293 294 292 290 289 288 287 288 292 298 302 275 231 255 277 282 281 274 270 275 275
317 298 293 292 291 290 289 289 291 293 289 284 281 280 279 283 287 289 290 290 293 294 295 290 280 280 286 291 294 288 267 268 278 283 283 276 272 274
294 285 281 283 284 283 282 282 282 284 283 282 282 280 281 282 285 286 288 292 295 293 295 295 288 289 286 284 286 289 288 272 271 278 285 285 285 282
283 283 284 279 280 279 280 282 283 282 282 281 281 282 282 281 283 287 289 291 291 290 290 291 290 291 290 294 295 297 300 301 295 288 279 271 275 278
278 281 281 280 276 273 275 276 278 280 280 279 281 281 283 284 285 285 286 286 288 292 296 300 301 297 294 293 295 296 298 302 304 304 296 286 277 269